DW9073 Houston TX US current weather conditions

sailwx.info

Wind from 054

Air temperature 15.0° C
Dewpoint 10.8° C

Last reported at 2019-Dec-13 00:03 UTC.
Time now 2019-Dec-13 00:19 UTC

Location: N 29°33' W 095°05'.
View on Google Maps.

See reports from other nearby stations

  
Tides and Currents Weather Stations Pressure Air Temp Water Temp Dewpoint Dewpoint Depression Visibility Wind Speed Wind Dir Waves Ship Positions
date/time (UTC)wind fromknots sea level pressurealtimeterstation pressurevisibilityair tempwater tempwave heightnotes
2019-Dec-13 00:03 054 15.0
2019-Dec-12 23:46 054 15.6
2019-Dec-12 23:31 054 15.6
2019-Dec-12 23:17 054 15.6
2019-Dec-12 23:01 054 16.1
2019-Dec-12 22:47 054 16.1
2019-Dec-12 22:31 054 16.1
2019-Dec-12 22:18 053 16.7
2019-Dec-12 22:01 053 1 gusting 4 16.7
2019-Dec-12 21:47 052 16.1
2019-Dec-12 21:32 054 16.1
2019-Dec-12 21:16 054 0 gusting 3 16.1
2019-Dec-12 21:01 053 16.1
2019-Dec-12 20:46 053 0 gusting 4 16.7
2019-Dec-12 20:31 054 17.2
2019-Dec-12 20:15 054 1 gusting 6 17.2
2019-Dec-12 20:01 055 16.7
2019-Dec-12 19:45 056 1 gusting 5 16.1
2019-Dec-12 19:30 047 1 gusting 4 16.1
2019-Dec-12 19:15 044 0 gusting 4 15.6
2019-Dec-12 19:01 050 0 gusting 4 15.6
2019-Dec-12 18:30 039 0 gusting 4 16.1
2019-Dec-12 18:15 045 0 gusting 4 15.6
2019-Dec-12 18:00 056 1 gusting 8 15.0
2019-Dec-12 17:45 048 0 gusting 4 15.0
2019-Dec-12 17:34 062 0 gusting 6 15.0
2019-Dec-12 17:18 053 1 gusting 5 15.0
2019-Dec-12 16:31 062 13.3
2019-Dec-12 16:18 041 1 gusting 8 13.3
2019-Dec-12 16:03 060 0 gusting 6 13.3
2019-Dec-12 15:46 053 2 gusting 7 13.3
2019-Dec-12 15:32 048 0 gusting 6 12.8
2019-Dec-12 15:16 112 1 gusting 9 12.2
2019-Dec-12 15:02 070 3 gusting 10 11.7
2019-Dec-12 14:47 053 1 gusting 8 12.2
2019-Dec-12 14:31 072 1 gusting 12 11.7
2019-Dec-12 14:16 052 1 gusting 6 11.7
2019-Dec-12 14:01 068 0 gusting 9 10.6
2019-Dec-12 13:45 091 3 gusting 10 10.0
2019-Dec-12 13:31 057 10.0
2019-Dec-12 13:15 047 10.0
2019-Dec-12 13:01 060 2 gusting 9 10.0
2019-Dec-12 12:45 052 0 gusting 5 10.0
2019-Dec-12 12:30 051 0 gusting 10 10.0
2019-Dec-12 12:15 053 1 gusting 11 10.6
2019-Dec-12 12:00 056 10.6
2019-Dec-12 11:45 068 4 gusting 9 10.6
2019-Dec-12 11:30 062 5 gusting 9 10.6
2019-Dec-12 11:15 050 10.0
2019-Dec-12 11:00 049 10.0
2019-Dec-12 10:45 054 10.0
2019-Dec-12 10:30 056 0 gusting 6 10.0
2019-Dec-12 10:18 047 9.4
2019-Dec-12 10:02 045 9.4
2019-Dec-12 09:48 049 9.4
2019-Dec-12 09:32 047 0 gusting 6 10.0
2019-Dec-12 09:17 047 9.4
2019-Dec-12 09:02 047 9.4
2019-Dec-12 08:47 047 9.4
2019-Dec-12 08:31 048 9.4
2019-Dec-12 08:18 048 9.4
2019-Dec-12 08:01 048 9.4
2019-Dec-12 07:46 048 10.0
2019-Dec-12 07:31 048 10.0
2019-Dec-12 07:18 047 10.0
2019-Dec-12 07:01 049 10.0
2019-Dec-12 06:47 049 9.4
2019-Dec-12 06:31 048 10.0
2019-Dec-12 06:15 048 10.0
2019-Dec-12 06:01 048 10.6
2019-Dec-12 05:46 048 10.6
2019-Dec-12 05:31 050 10.6
2019-Dec-12 05:16 049 10.6
2019-Dec-12 05:01 049 11.1
2019-Dec-12 04:45 051 11.1
2019-Dec-12 04:30 059 11.1
2019-Dec-12 04:16 045 11.1
2019-Dec-12 04:01 053 0 gusting 6 11.1
2019-Dec-12 03:45 056 11.7
2019-Dec-12 03:30 056 0 gusting 6 11.7
2019-Dec-12 02:15 054 12.2
2019-Dec-12 02:00 054 12.2
2019-Dec-12 01:48 055 12.2
2019-Dec-12 01:32 059 12.8
2019-Dec-12 01:18 054 12.8
2019-Dec-12 01:05 055 12.8
2019-Dec-12 00:46 055 13.3
2019-Dec-12 00:31 055 13.3
2019-Dec-12 00:17 055 13.3
2019-Dec-12 00:02 055 0 gusting 4 13.3
2019-Dec-11 23:47 054 13.9
2019-Dec-11 23:31 052 13.9
2019-Dec-11 23:16 060 14.4
2019-Dec-11 23:02 060 14.4
2019-Dec-11 22:46 064 0 gusting 7 15.0
2019-Dec-11 22:31 049 0 gusting 8 15.0
2019-Dec-11 22:17 041 0 gusting 6 15.6
2019-Dec-11 22:01 078 1 gusting 6 16.1
2019-Dec-11 21:47 049 0 gusting 7 16.1
2019-Dec-11 21:32 060 16.1
2019-Dec-11 21:17 056 0 gusting 6 16.1
2019-Dec-11 21:01 026 16.7
2019-Dec-11 20:47 040 16.7
2019-Dec-11 20:32 043 16.1
2019-Dec-11 20:16 047 16.1
2019-Dec-11 20:01 049 0 gusting 7 15.6
2019-Dec-11 19:46 062 15.6
2019-Dec-11 19:32 062 1 gusting 6 15.6
2019-Dec-11 19:17 056 0 gusting 6 15.0
2019-Dec-11 19:01 044 0 gusting 5 15.0
2019-Dec-11 17:49 053 0 gusting 6 13.9
2019-Dec-11 17:31 066 13.9
2019-Dec-11 17:16 064 13.3
2019-Dec-11 17:01 360 13.3
2019-Dec-11 16:46 345 13.3
2019-Dec-11 16:31 335 0 gusting 4 12.8
2019-Dec-11 16:17 040 12.2
2019-Dec-11 16:01 043 12.2
2019-Dec-11 15:46 048 11.7
2019-Dec-11 15:31 041 11.7
2019-Dec-11 15:15 044 11.1
2019-Dec-11 15:01 042 10.6
2019-Dec-11 14:46 037 10.0
2019-Dec-11 14:32 024 8.9
2019-Dec-11 14:15 022 8.3
2019-Dec-11 14:01 024 7.8
2019-Dec-11 13:45 024 7.8
2019-Dec-11 13:30 020 7.8
2019-Dec-11 13:15 054 7.8
2019-Dec-11 13:00 053 8.3
2019-Dec-11 12:45 047 8.3
2019-Dec-11 12:32 049 7.8
2019-Dec-11 12:17 049 7.8
2019-Dec-11 12:03 070 8.3
2019-Dec-11 11:46 044 8.3
2019-Dec-11 11:31 045 8.3
2019-Dec-11 11:19 043 8.3
2019-Dec-11 11:01 045 8.3
2019-Dec-11 10:47 045 8.3
2019-Dec-11 10:31 037 0 gusting 5 8.3
2019-Dec-11 10:18 037 8.9
2019-Dec-11 10:02 039 0 gusting 5 8.9
2019-Dec-11 09:47 037 0 gusting 6 8.3
2019-Dec-11 09:31 037 8.9
2019-Dec-11 09:16 054 8.9
2019-Dec-11 09:02 062 8.9
2019-Dec-11 08:47 070 8.9
2019-Dec-11 08:31 104 8.9
2019-Dec-11 08:15 110 8.9
2019-Dec-11 08:01 351 0 gusting 4 8.9
2019-Dec-11 07:46 035 9.4
2019-Dec-11 07:30 016 9.4
2019-Dec-11 07:16 320 0 gusting 6 9.4
2019-Dec-11 07:02 185 0 gusting 6 8.9
2019-Dec-11 06:47 047 0 gusting 8 9.4
2019-Dec-11 06:31 342 9.4
2019-Dec-11 06:15 049 9.4
2019-Dec-11 06:00 016 9.4
2019-Dec-11 05:45 073 9.4
2019-Dec-11 05:30 064 10.0
2019-Dec-11 05:15 237 10.0
2019-Dec-11 05:00 315 10.0
2019-Dec-11 04:45 066 10.0
2019-Dec-11 04:30 254 10.0
2019-Dec-11 04:15 314 10.6
2019-Dec-11 04:05 322 0 gusting 5 10.0
2019-Dec-11 03:47 043 10.6
2019-Dec-11 03:34 358 10.6
2019-Dec-11 03:17 078 10.6
2019-Dec-11 03:05 232 10.6
2019-Dec-11 02:47 312 1 gusting 6 10.6
2019-Dec-11 02:34 062 10.6
2019-Dec-11 02:18 347 10.6
2019-Dec-11 02:01 350 0 gusting 8 10.6
2019-Dec-11 01:48 111 10.6
2019-Dec-11 01:32 097 10.6
2019-Dec-11 01:18 303 10.6
2019-Dec-11 01:01 023 11.1
2019-Dec-11 00:47 272 0 gusting 5 11.1
2019-Dec-11 00:31 126 11.1
2019-Dec-11 00:16 312 0 gusting 5 11.1
2019-Dec-11 00:00 303 0 gusting 4 11.1